Regional Weather Roundup
Issued by NWS

Home | Current Version | Previous Version | Graphics & Text | Print | Product List | Glossary On
Versions: 1 2 3 4 5 6 7 8 9 10 11 12 13 14 15 16 17 18 19 20 21 22 23 24 25 26 27 28 29 30 31 32 33 34 35 36 37 38 39 40 41 42 43 44 45 46 47 48 49 50
000
ASUS43 KFSD 241910
RWRSD

WEATHER ROUNDUP FOR SOUTH DAKOTA
NATIONAL WEATHER SERVICE SIOUX FALLS SD
100 PM CST FRI NOV 24 2017

NOTE: "FAIR" INDICATES FEW OR NO CLOUDS BELOW 12,000 FEET WITH NO
SIGNIFICANT WEATHER AND/OR OBSTRUCTIONS TO VISIBILITY.


SDZ001>005-009-010-012>017-242000-
NORTHWEST AND NORTH CENTRAL SOUTH DAKOTA

CITY           SKY/WX    TMP DP  RH WIND       PRES   REMARKS
FAITH            N/A     52  36  54 NW29      29.75R
MOBRIDGE       SUNNY     55  36  48 NW20G29   29.66R
$$

SDZ012>016-024>037-041>051-057-063-072>074-242000-
SOUTHWEST AND SOUTH CENTRAL SOUTH DAKOTA

CITY           SKY/WX    TMP DP  RH WIND       PRES   REMARKS
RAPID CTY ARPT SUNNY     54  27  35 NW31G43   29.82R
PIERRE         MOSUNNY   56  38  50 NW30G39   29.70R
CUSTER         SUNNY     45  20  36 NW8G22    29.83R
ELLSWORTH AFB  SUNNY     53  27  36 NW32G44   29.80R
PHILIP         MOSUNNY   58  33  39 N25G36    29.78R
PINE RIDGE     CLOUDY    54  30  40 N15G25    29.85R
SPEARFISH      FAIR      48  27  43 NW28G38   29.85R
WINNER         FAIR      59  38  45 NW29G43   29.72R
$$

SDZ004>011-016>023-039-040-242000-
NORTHEAST SOUTH DAKOTA

CITY           SKY/WX    TMP DP  RH WIND       PRES   REMARKS
ABERDEEN       SUNNY     55  38  52 NW25G33   29.59R
WATERTOWN      CLOUDY    50  43  77 NW21G35   29.51R
SISSETON         N/A     51  43  74 NW22G28   29.50R
$$

SDZ017-020-022-023-036>040-048>070-242000-
SOUTHEAST SOUTH DAKOTA

CITY           SKY/WX    TMP DP  RH WIND       PRES   REMARKS
SIOUX FALLS    CLOUDY    62  39  42 NW29G47   29.52F
HURON          CLOUDY    55  41  59 NW30G40   29.59R
CHAMBERLAIN    CLOUDY    59  41  50 NW25G36   29.67R
MITCHELL       CLOUDY    59  40  49 NW36G43   29.60R
YANKTON        PTSUNNY   64  38  38 NW29G38   29.58R
$$

ABBREVIATIONS USED IN REMARKS
   TC - TEMPERATURE IN CELSIUS
  WCI - WIND CHILL INDEX
   HX - HEAT INDEX
  VSB - VISIBILITY




USA.gov is the U.S. government's official web portal to all federal, state and local government web resources and services.